Flag for U.S.A. Weather past 2 weeks in Memphis, Tennessee, U.S.A.

Now
53 °F

Passing clouds.


Feels Like: 53 °F
Forecast: 52 / 75 °F
Wind: No wind

Location: Memphis International Airport


UV Index: 5 (Moderate)

Visibility: 10 mi


Pressure: 30.19 "Hg

Humidity: 89%

Dew point: 50 °F

Location of MemphisLocation

Historic Weather in Memphis

°F

Memphis temperature yesterday

Maximum temperature yesterday: 73 °F (at 4:54 PM)
Minimum temperature yesterday: 56 °F (at 4:54 AM)
Average temperature yesterday: 64 °F

Past Weeks' High & Low Weather Summary

 TemperatureHumidityPressure
High78 °F (Apr 10, 2:54 PM)97% (Apr 7, 6:54 AM)30.29 "Hg (Apr 7, 6:54 AM)
Low36 °F (Apr 15, 5:54 AM)21% (Apr 16, 5:54 PM)29.54 "Hg (Apr 7, 5:54 AM)
Average57 °F60%30.02 "Hg
* Reported Apr 4 5:54 AM — Apr 19 5:54 AM, Memphis, Weather by CustomWeather, © 2014

Note: Actual official high and low records may vary slightly from our data, if they occured in-between our weather recording intervals... More about our weather records

Advertising

Historic Weather Conditions — Data for Previous 24 hours

 ConditionsComfort  
Time TempWeatherWind HumidityBarometerVisibility
5:54 AM
Apr 19
54 °FPassing clouds.No wind86%30.17 "Hg10 mi
4:54 AM53 °FPassing clouds.No wind86%30.17 "Hg10 mi
3:54 AM54 °FPassing clouds.No wind86%30.17 "Hg10 mi
2:54 AM56 °FPassing clouds.No wind84%30.17 "Hg10 mi
1:54 AM58 °FPassing clouds.No wind78%30.17 "Hg10 mi
12:54 AM59 °FPassing clouds.No wind75%30.18 "Hg10 mi
11:54 PM
Apr 18
60 °FPassing clouds.3 mph72%30.18 "Hg10 mi
10:54 PM64 °FPassing clouds.No wind63%30.18 "Hg10 mi
9:54 PM66 °FPassing clouds.3 mph59%30.17 "Hg10 mi
8:54 PM66 °FPassing clouds.6 mph59%30.16 "Hg10 mi
7:54 PM69 °FPassing clouds.8 mph51%30.15 "Hg10 mi
6:54 PM70 °FPartly sunny.10 mph49%30.14 "Hg10 mi
5:54 PM71 °FPartly sunny.6 mph45%30.14 "Hg10 mi
4:54 PM73 °FBroken clouds.7 mph44%30.14 "Hg10 mi
3:54 PM71 °FScattered clouds.9 mph45%30.15 "Hg10 mi
2:54 PM70 °FBroken clouds.8 mph47%30.18 "Hg10 mi
1:54 PM69 °FMore clouds than sun.8 mph51%30.21 "Hg10 mi
12:54 PM68 °FOvercast.6 mph53%30.21 "Hg10 mi
11:54 AM68 °FBroken clouds.No wind51%30.23 "Hg10 mi
10:54 AM69 °FBroken clouds.No wind53%30.24 "Hg10 mi
9:54 AM65 °FScattered clouds.3 mph54%30.24 "Hg10 mi
8:54 AM62 °FBroken clouds.No wind58%30.23 "Hg10 mi
7:54 AM59 °FPartly sunny.No wind64%30.23 "Hg10 mi
Weather by CustomWeather, © 2014

See weather overview